Location: Unspecified
(0.0000°N, 0.0000°E)
Time: 01:48:36
(UTC+02:00)

Meteor PRIRODA - Visible Passes

Search period start: 03 September 2015 00:00
Search period end: 13 September 2015 00:00
Orbit: 500 x 523 km, 97.4° (Epoch: 01 September)

Date Brightness Start Highest point End Pass type
(mag) Time Alt. Az. Time Alt. Az. Time Alt. Az.
03 Sep 4.8 06:21:03 10° N 06:23:16 35° N 06:23:16 35° N visible
04 Sep 5.5 06:05:10 10° NNE 06:07:04 27° NE 06:07:04 27° NE visible
05 Sep 6.3 05:49:36 10° NE 05:50:52 17° ENE 05:50:52 17° ENE visible
06 Sep 7.0 05:34:36 10° ENE 05:34:39 10° ENE 05:34:39 10° ENE visible
06 Sep 5.5 07:08:16 10° NW 07:09:34 14° WNW 07:09:34 14° WNW visible
07 Sep 4.9 06:51:16 10° NNW 06:53:22 23° NW 06:53:22 23° NW visible
08 Sep 4.5 06:34:47 10° N 06:37:09 34° NNW 06:37:09 34° NNW visible
09 Sep 4.7 06:18:37 10° NNE 06:20:57 38° NNE 06:20:57 38° NNE visible
10 Sep 5.5 06:02:45 10° NNE 06:04:44 27° NE 06:04:44 27° NE visible
11 Sep 6.4 05:47:14 10° NE 05:48:32 17° ENE 05:48:32 17° ENE visible
12 Sep 7.1 05:32:19 10° ENE 05:32:20 10° ENE 05:32:20 10° ENE visible
12 Sep 5.4 07:05:35 10° NW 07:07:15 16° WNW 07:07:15 16° WNW visible
